Location: Kellogg
(38.0159°N, 90.0546°W)
Time: 07:58:06
(UTC+00:00)

S-56A Canister/Altair - Pass Details

Date: 18 September 2024
Orbit: 636 x 2487 km, 38.9° (Epoch: 09 October)

Event Time Altitude Azimuth Distance (km) Brightness Sun altitude
Rises 02:14:35 0° 275° (W) 3,392 12.0 -25.7°
Reaches altitude 10° 02:16:43 10° 276° (W) 2,613 11.2 -26.1°
Maximum altitude 02:23:00 86° 6° (N) 1,203 8.3 -27.2°
Enters shadow 02:25:14 53° 90° (E) 1,559 8.6 -27.6°
Drops below altitude 10° 02:32:44 10° 96° (E) 3,935 - -28.9°
Sets 02:36:39 0° 97° (E) 5,218 - -29.6°
